Regional Weather Roundup
Issued by NWS

Home | Current Version | Previous Version | Graphics & Text | Print | Product List | Glossary On
Versions: 1 2 3 4 5 6 7 8 9 10 11 12 13 14 15 16 17 18 19 20 21 22 23 24 25 26 27 28 29 30 31 32 33 34 35 36 37 38 39 40 41 42 43 44 45 46 47 48 49 50
000
ASUS45 KABQ 181501
RWRNM
NEW MEXICO REGIONAL WEATHER ROUNDUP
NATIONAL WEATHER SERVICE ALBUQUERQUE NM
900 AM MDT FRI AUG 18 2017

NOTE: "FAIR" MEANS FEW OR NO CLOUDS BELOW 12,000 FEET AGL WITH NO
       SIGNIFICANT WEATHER OR OBSTRUCTIONS TO VISION.

      THIS PRODUCT IS RELEASED AS TWO VERSIONS.  ONE VERSION NEAR
      THE TOP OF THE HOUR CONTAINING PRELIMINARY DATA FROM ALBUQUERQUE
      AND OTHER STATIONS.  A FINAL VERSION WITH ADDITIONAL DATA IS
      ISSUED ABOUT 10 MINUTES AFTER THE HOUR.

NMZ501-503-504-510>518-181600-
NORTHWEST PLATEAU/NORTHCENTRAL MOUNTAINS

CITY           SKY/WX    TMP DP  RH WIND       PRES   REMARKS
FARMINGTON     FAIR      63  38  39 E7        30.26R
LOS ALAMOS     FAIR      69  35  28 NE6       30.39R
SANTA FE       FAIR      70  39  32 N13       30.32R
TAOS           FAIR      63  39  41 CALM      30.42R
ANGEL FIRE     FAIR      51  39  63 CALM      30.49S

$$
NMZ402-403-502-505>509-181600-
WESTCENTRAL MOUNTAINS/SOUTHWEST MOUNTAINS

CITY           SKY/WX    TMP DP  RH WIND       PRES   REMARKS
GALLUP         FAIR      64  31  28 CALM      30.34S
GRANTS         FAIR      63  29  27 CALM      30.36S
SILVER CITY    FAIR      74  43  32 NW10      30.24R

$$
NMZ407-409-411-412-181600-
SOUTHERN DESERTS

CITY           SKY/WX    TMP DP  RH WIND       PRES   REMARKS
DEMING         FAIR      72  48  42 N3        30.16R
LAS CRUCES     FAIR      77  58  51 S5        30.18R
HOLLOMAN AFB   FAIR      81  58  45 CALM      30.17S
ALAMOGORDO     FAIR      77  55  47 CALM      30.17S
T OR C         FAIR      78  43  28 VRB3      30.19R

$$
NMZ519>523-181600-
CENTRAL VALLEYS/CENTRAL HIGHLANDS

CITY           SKY/WX    TMP DP  RH WIND       PRES   REMARKS
ALBUQUERQUE    FAIR      70  42  36 NW6       30.26R
DOUBLE EAGLE   PTSUNNY   73  41  31 NE8       30.29R
CLINES CORNERS NOT AVBL
BELEN          NOT AVBL
SOCORRO        FAIR      74  44  34 CALM      30.21S

$$
NMZ524>526-539-540-181600-
SOUTHCENTRAL MOUNTAINS

CITY           SKY/WX    TMP DP  RH WIND       PRES   REMARKS
RUIDOSO        FAIR      72  48  43 NW3       30.36R

$$
NMZ527>531-181600-
NORTHEAST HIGHLANDS/NORTHEAST PLAINS

CITY           SKY/WX    TMP DP  RH WIND       PRES   REMARKS
LAS VEGAS      FAIR      63  49  60 CALM      30.35R
RATON          FAIR      64  50  60 E7        30.31R
CLAYTON        FAIR      69  62  78 MISG      30.23S

$$
NMZ532>537-181600-
EASTCENTRAL PLAINS

CITY           SKY/WX    TMP DP  RH WIND       PRES   REMARKS
SANTA ROSA     FAIR      69  59  70 CALM      30.20R
TUCUMCARI      FAIR      79  63  57 NE6       30.16R
CANNON AFB     FAIR      72  70  93 E7        30.20R
CLOVIS AIRPORT PTSUNNY   70  66  87 SE7       30.21R

$$
NMZ028-029-538-181600-
SOUTHEAST PLAINS

CITY           SKY/WX    TMP DP  RH WIND       PRES   REMARKS
ROSWELL        FAIR      77  64  64 S9        30.13R
ARTESIA        FAIR      75  66  73 SE9       30.12S
CARLSBAD       FAIR      76  68  76 SE7       30.10R
HOBBS          SUNNY     77  64  65 S10       30.15R


$$



USA.gov is the U.S. government's official web portal to all federal, state and local government web resources and services.